Location: Waco, TX
(31.5480°N, 97.1670°W)
Time: 17:16:39
(UTC-05:00)

ISS - Pass Details

Date: 14 September 2018
Orbit: 403 x 408 km, 51.6° (Epoch: 23 September)

Event Time Altitude Azimuth Distance (km) Brightness Sun altitude
Rises 08:10:40 0° 302° (WNW) 2,316 -0.5 11.6°
Reaches altitude 10° 08:12:58 10° 288° (WNW) 1,453 -1.6 12.1°
Maximum altitude 08:15:41 25° 231° (SW) 859 -2.5 12.7°
Drops below altitude 10° 08:18:24 10° 174° (S) 1,444 -0.8 13.3°
Sets 08:20:41 0° 160° (SSE) 2,298 0.3 13.7°
